KI4SSU Weather Reports


Display with metric or nautical units.
time (UTC)temp
F
wind
direction
speed
MPH
gust
MPH
rain 1hr
in
rain 24hr
in
rain mn
in
humidity
%
barometer
mb
20260906163405 96 61 2.0 6.0 0.00 0.00 0.00
20260906162905 95 92 3.0 4.0 0.00 0.00 0.00
20260906162406 95 220 3.0 4.0 0.00 0.00 0.00
20260906161405 95 82 4.0 4.0 0.00 0.00 0.00
20260906160905 93 87 1.0 2.0 0.00 0.00 0.00
20260906160405 93 149 0.0 3.0 0.00 0.00 0.00
20260906155905 92 44 2.0 4.0 0.00 0.00 0.00
20260906155405 91 190 4.0 5.0 0.00 0.00 0.00
20260906154905 91 141 3.0 5.0 0.00 0.00 0.00
20260906154405 92 256 2.0 4.0 0.00 0.00 0.00
20260906153906 91 38 1.0 2.0 0.00 0.00 0.00
20260906153405 90 134 2.0 4.0 0.00 0.00 0.00
20260906152905 90 179 2.0 2.0 0.00 0.00 0.00
20260906152406 90 134 0.0 4.0 0.00 0.00 0.00
20260906151905 89 124 2.0 3.0 0.00 0.00 0.00
20260906150908 89 59 2.0 4.0 0.00 0.00 0.00
20260906150406 89 37 0.0 0.0 0.00 0.00 0.00
20260906145405 87 69 2.0 4.0 0.00 0.00 0.00
20260906143405 87 321 1.0 2.0 0.00 0.00 0.00
20260906142905 86 70 2.0 2.0 0.00 0.00 0.00
20260906142406 85 82 1.0 3.0 0.00 0.00 0.00
20260906141905 85 62 0.0 0.0 0.00 0.00 0.00
20260906141405 84 108 2.0 3.0 0.00 0.00 0.00
20260906140905 84 170 0.0 0.0 0.00 0.00 0.00
20260906140405 84 155 1.0 3.0 0.00 0.00 0.00
20260906134907 82 144 0.0 0.0 0.00 0.00 0.00
20260906134406 82 127 1.0 3.0 0.00 0.00 0.00
20260906133908 82 73 0.0 2.0 0.00 0.00 0.00
20260906130405 80 128 1.0 0.0 0.00 0.00 0.00
20260906123906 78 231 0.0 0.0 0.00 0.00 0.00
20260906121906 77 231 0.0 0.0 0.00 0.00 0.00
20260906120907 77 231 0.0 0.0 0.00 0.00 0.00
20260906115906 77 231 0.0 0.0 0.00 0.00 0.00
20260906115406 77 231 0.0 0.0 0.00 0.00 0.00
20260906114406 77 231 0.0 0.0 0.00 0.00 0.00
20260906113406 77 231 0.0 0.0 0.00 0.00 0.00
20260906111907 78 231 0.0 0.0 0.00 0.00 0.00
20260906111406 78 231 0.0 0.0 0.00 0.00 0.00
20260906105906 78 231 0.0 0.0 0.00 0.00 0.00
20260906103907 78 231 0.0 0.0 0.00 0.00 0.00
20260906103406 78 231 0.0 0.0 0.00 0.00 0.00
20260906102907 78 231 0.0 0.0 0.00 0.00 0.00
20260906101907 78 231 0.0 0.0 0.00 0.00 0.00
20260906101407 78 231 0.0 0.0 0.00 0.00 0.00
20260906100907 78 231 0.0 0.0 0.00 0.00 0.00
20260906093907 80 231 0.0 0.0 0.00 0.00 0.00
20260906093408 79 231 0.0 0.0 0.00 0.00 0.00
20260906091908 80 231 0.0 0.0 0.00 0.00 0.00
20260906091407 79 231 0.0 0.0 0.00 0.00 0.00
20260906090907 79 231 0.0 0.0 0.00 0.00 0.00
20260906085906 80 231 0.0 0.0 0.00 0.00 0.00
20260906083907 81 231 0.0 0.0 0.00 0.00 0.00
20260906082407 81 231 0.0 0.0 0.00 0.00 0.00
20260906081908 82 184 0.0 1.0 0.00 0.00 0.00
20260906081407 82 214 2.0 2.0 0.00 0.00 0.00
20260906075907 83 193 1.0 2.0 0.00 0.00 0.00
20260906074908 83 255 2.0 2.0 0.00 0.00 0.00
20260906074407 83 245 2.0 3.0 0.00 0.00 0.00
20260906073907 82 239 0.0 0.0 0.00 0.00 0.00
20260906073407 83 227 2.0 1.0 0.00 0.00 0.00
20260906072407 83 90 0.0 2.0 0.00 0.00 0.00
20260906071907 83 220 0.0 1.0 0.00 0.00 0.00
20260906070407 83 290 0.0 2.0 0.00 0.00 0.00
20260906065907 83 62 0.0 0.0 0.00 0.00 0.00
20260906064907 84 96 2.0 1.0 0.00 0.00 0.00
20260906064407 84 201 0.0 2.0 0.00 0.00 0.00
20260906062407 84 201 1.0 2.0 0.00 0.00 0.00
20260906061407 84 207 2.0 3.0 0.00 0.00 0.00
20260906055907 84 193 1.0 1.0 0.00 0.00 0.00
20260906055407 85 225 0.0 0.0 0.00 0.00 0.00
20260906054907 85 170 1.0 2.0 0.00 0.00 0.00
20260906053907 84 235 0.0 2.0 0.00 0.00 0.00
20260906051408 85 245 0.0 1.0 0.00 0.00 0.00
20260906050908 86 134 1.0 2.0 0.00 0.00 0.00
20260906050408 85 155 1.0 2.0 0.00 0.00 0.00
20260906045908 85 132 0.0 1.0 0.00 0.00 0.00
20260906044908 85 100 0.0 2.0 0.00 0.00 0.00
20260906043408 86 199 0.0 3.0 0.00 0.00 0.00
20260906041408 86 148 0.0 0.0 0.00 0.00 0.00
20260906040911 86 145 0.0 0.0 0.00 0.00 0.00
20260906040407 86 193 0.0 3.0 0.00 0.00 0.00
20260906035907 87 142 0.0 3.0 0.00 0.00 0.00
20260906034907 88 190 2.0 1.0 0.00 0.00 0.00
20260906034409 88 144 1.0 1.0 0.00 0.00 0.00
20260906033909 88 184 3.0 3.0 0.00 0.00 0.00
20260906032409 88 80 2.0 5.0 0.00 0.00 0.00
20260906031908 88 124 1.0 3.0 0.00 0.00 0.00
20260906030407 89 177 1.0 7.0 0.00 0.00 0.00
20260906021408 90 120 3.0 5.0 0.00 0.00 0.00
20260906015908 90 189 1.0 6.0 0.00 0.00 0.00
20260906015408 90 82 2.0 4.0 0.00 0.00 0.00
20260906014911 90 253 4.0 2.0 0.00 0.00 0.00
20260906013909 91 61 4.0 6.0 0.00 0.00 0.00
20260906013408 91 127 2.0 4.0 0.00 0.00 0.00
20260906012408 92 151 5.0 6.0 0.00 0.00 0.00
20260906010408 95 73 0.0 0.0 0.00 0.00 0.00
20260906005908 95 48 0.0 1.0 0.00 0.00 0.00
20260906005408 95 83 0.0 2.0 0.00 0.00 0.00
20260905233409 100 69 0.0 0.0 0.00 0.00 0.00
20260905231909 100 56 1.0 1.0 0.00 0.00 0.00
20260905231409 101 100 2.0 4.0 0.00 0.00 0.00
20260905230409 100 52 3.0 1.0 0.00 0.00 0.00
20260905225909 101 25 1.0 4.0 0.00 0.00 0.00
20260905224409 101 87 3.0 8.0 0.00 0.00 0.00
20260905222909 101 180 2.0 2.0 0.00 0.00 0.00
20260905221911 101 63 1.0 2.0 0.00 0.00 0.00
20260905221409 101 173 2.0 1.0 0.00 0.00 0.00
20260905213909 102 306 0.0 0.0 0.00 0.00 0.00
20260905212909 101 80 3.0 4.0 0.00 0.00 0.00
20260905205909 103 13 3.0 1.0 0.00 0.00 0.00
20260905204409 105 144 0.0 3.0 0.00 0.00 0.00
20260905203909 104 59 3.0 4.0 0.00 0.00 0.00
20260905203409 101 80 2.0 2.0 0.00 0.00 0.00
20260905202909 103 65 0.0 0.0 0.00 0.00 0.00
20260905202409 103 359 5.0 5.0 0.00 0.00 0.00
20260905201909 104 166 1.0 4.0 0.00 0.00 0.00
20260905201409 100 72 2.0 4.0 0.00 0.00 0.00
20260905200909 101 176 3.0 6.0 0.00 0.00 0.00
20260905200409 101 134 2.0 4.0 0.00 0.00 0.00
20260905195409 103 235 4.0 7.0 0.00 0.00 0.00
20260905194411 103 231 4.0 5.0 0.00 0.00 0.00
20260905193909 103 45 3.0 3.0 0.00 0.00 0.00
20260905193409 103 49 1.0 0.0 0.00 0.00 0.00
20260905192910 102 199 3.0 5.0 0.00 0.00 0.00
20260905192410 104 176 3.0 4.0 0.00 0.00 0.00
20260905191410 103 300 1.0 0.0 0.00 0.00 0.00
20260905190910 102 82 1.0 2.0 0.00 0.00 0.00
20260905185910 104 194 1.0 2.0 0.00 0.00 0.00
20260905185410 103 21 1.0 3.0 0.00 0.00 0.00
20260905184910 101 0 0.0 0.0 0.00 0.00 0.00
20260905184410 97 82 1.0 2.0 0.00 0.00 0.00
20260905183910 98 83 2.0 2.0 0.00 0.00 0.00
20260905183410 100 13 1.0 0.0 0.00 0.00 0.00
20260905182909 103 63 2.0 4.0 0.00 0.00 0.00
20260905182409 103 90 3.0 4.0 0.00 0.00 0.00
20260905181910 101 308 1.0 0.0 0.00 0.00 0.00
20260905180910 101 162 4.0 4.0 0.00 0.00 0.00
20260905180410 99 76 0.0 0.0 0.00 0.00 0.00
20260905175910 100 25 4.0 5.0 0.00 0.00 0.00
20260905175410 99 179 4.0 4.0 0.00 0.00 0.00
20260905174910 100 191 3.0 4.0 0.00 0.00 0.00
20260905174410 99 193 2.0 5.0 0.00 0.00 0.00
20260905173410 99 208 2.0 4.0 0.00 0.00 0.00
20260905172410 100 265 0.0 7.0 0.00 0.00 0.00
20260905171909 99 70 4.0 3.0 0.00 0.00 0.00
20260905170409 98 62 2.0 5.0 0.00 0.00 0.00
20260905165910 99 348 1.0 1.0 0.00 0.00 0.00
20260905164909 95 208 2.0 3.0 0.00 0.00 0.00
20260905164410 96 252 2.0 4.0 0.00 0.00 0.00
20260905163909 96 287 3.0 3.0 0.00 0.00 0.00